When you browse on this site, cookies collect data to enhance your experience and personalize the content and advertising you see.
Visit our Privacy Policy to learn more. By continuing to use the site, you agree to this use of cookies and data.
  • In Lithuania
  • List of Countries
  • For 7 days
  • Water Temperature
  • Satellite Maps
  • Weather Map
  • Weather Widgets
  • user-avatar
    Login

    Hourly Weather Berezovskiy

    Today, 21 May, Tuesday

    Time Temperature Precipitation Wind Pressure Humidity
    00:00 +15°C° 0 mm 4 mps 751 mmHg 48%
    01:00 +15°C° 0 mm 4 mps 751 mmHg 49%
    02:00 +14°C° 0 mm 4 mps 751 mmHg 49%
    03:00 +13°C° 0 mm 4 mps 752 mmHg 49%
    04:00 +14°C° 0 mm 4 mps 752 mmHg 50%
    05:00 +14°C° 0 mm 4 mps 752 mmHg 52%
    06:00 +14°C° 0 mm 4 mps 752 mmHg 53%
    07:00 +16°C° 0 mm 5 mps 753 mmHg 51%
    08:00 +17°C° 0 mm 6 mps 753 mmHg 50%
    09:00 +20°C° 0 mm 6 mps 753 mmHg 48%
    10:00 +21°C° 0 mm 6 mps 753 mmHg 47%
    11:00 +23°C° 0 mm 6 mps 753 mmHg 46%
    12:00 +24°C° 0 mm 6 mps 753 mmHg 44%
    13:00 +24°C° 0 mm 6 mps 752 mmHg 43%
    14:00 +24°C° 0 mm 6 mps 752 mmHg 42%
    15:00 +26°C° 0 mm 6 mps 752 mmHg 40%
    16:00 +25°C° 0 mm 5 mps 752 mmHg 43%
    17:00 +23°C° 0 mm 5 mps 752 mmHg 46%
    18:00 +23°C° 0 mm 4 mps 752 mmHg 48%
    19:00 +21°C° 0 mm 5 mps 752 mmHg 50%
    20:00 +19°C° 0 mm 5 mps 752 mmHg 51%
    21:00 +16°C° 0 mm 6 mps 752 mmHg 52%
    22:00 +15°C° 0 mm 6 mps 752 mmHg 52%
    23:00 +15°C° 0 mm 6 mps 752 mmHg 52%

    Tomorrow, 22 May, Wednesday

    Time Temperature Precipitation Wind Pressure Humidity
    00:00 +14°C° 0 mm 6 mps 751 mmHg 52%
    01:00 +14°C° 0 mm 6 mps 751 mmHg 52%
    02:00 +14°C° 0 mm 6 mps 751 mmHg 52%
    03:00 +14°C° 0 mm 6 mps 751 mmHg 53%
    04:00 +13°C° 0 mm 6 mps 751 mmHg 55%
    05:00 +13°C° 0 mm 6 mps 751 mmHg 58%
    06:00 +13°C° 0 mm 6 mps 751 mmHg 60%
    07:00 +14°C° 0 mm 7 mps 751 mmHg 57%
    08:00 +15°C° 0 mm 7 mps 750 mmHg 53%
    09:00 +17°C° 0 mm 8 mps 750 mmHg 50%
    10:00 +17°C° 0 mm 8 mps 750 mmHg 50%
    11:00 +18°C° 0 mm 8 mps 749 mmHg 50%
    12:00 +20°C° 0 mm 7 mps 749 mmHg 50%
    13:00 +21°C° 0 mm 7 mps 749 mmHg 51%
    14:00 +21°C° 0 mm 7 mps 748 mmHg 52%
    15:00 +22°C° 0 mm 6 mps 748 mmHg 53%
    16:00 +20°C° 0.9 mm 5 mps 748 mmHg 63%
    17:00 +19°C° 0.9 mm 3 mps 748 mmHg 74%
    18:00 +17°C° 0.9 mm 2 mps 748 mmHg 84%
    19:00 +17°C° 0.2 mm 2 mps 748 mmHg 84%
    20:00 +16°C° 0.2 mm 3 mps 748 mmHg 85%
    21:00 +16°C° 0.2 mm 3 mps 748 mmHg 85%
    22:00 +14°C° 0 mm 3 mps 748 mmHg 85%
    23:00 +14°C° 0 mm 3 mps 748 mmHg 84%

    Day after tomorrow, 23 May, Thursday

    Time Temperature Precipitation Wind Pressure Humidity
    00:00 +13°C° 0 mm 3 mps 747 mmHg 84%
    01:00 +13°C° 0 mm 3 mps 747 mmHg 84%
    02:00 +13°C° 0 mm 3 mps 747 mmHg 84%
    03:00 +12°C° 0 mm 3 mps 747 mmHg 85%
    04:00 +13°C° 0 mm 3 mps 747 mmHg 84%
    05:00 +14°C° 0 mm 3 mps 747 mmHg 84%
    06:00 +16°C° 0 mm 3 mps 747 mmHg 84%
    07:00 +17°C° 0.1 mm 4 mps 747 mmHg 77%
    08:00 +19°C° 0.1 mm 6 mps 747 mmHg 71%
    09:00 +21°C° 0.1 mm 7 mps 747 mmHg 65%
    10:00 +21°C° 0.4 mm 8 mps 747 mmHg 61%
    11:00 +22°C° 0.4 mm 8 mps 746 mmHg 58%
    12:00 +23°C° 0.4 mm 8 mps 746 mmHg 55%
    13:00 +23°C° 0.2 mm 9 mps 746 mmHg 55%
    14:00 +22°C° 0.2 mm 9 mps 746 mmHg 55%
    15:00 +22°C° 0.2 mm 10 mps 746 mmHg 55%
    16:00 +21°C° 0 mm 9 mps 746 mmHg 59%
    17:00 +21°C° 0 mm 8 mps 746 mmHg 63%
    18:00 +21°C° 0 mm 8 mps 746 mmHg 66%
    19:00 +20°C° 0 mm 7 mps 746 mmHg 71%
    20:00 +17°C° 0 mm 6 mps 746 mmHg 76%
    21:00 +16°C° 0 mm 5 mps 747 mmHg 81%
    22:00 +16°C° 0 mm 6 mps 747 mmHg 81%
    23:00 +16°C° 0 mm 6 mps 747 mmHg 81%

    24 May, Friday

    Time Temperature Precipitation Wind Pressure Humidity
    00:00 +16°C° 0 mm 6 mps 747 mmHg 80%
    01:00 +16°C° 0 mm 6 mps 747 mmHg 81%
    02:00 +15°C° 0 mm 6 mps 747 mmHg 82%
    03:00 +15°C° 0 mm 6 mps 747 mmHg 84%
    04:00 +15°C° 0 mm 6 mps 747 mmHg 83%
    05:00 +15°C° 0 mm 6 mps 747 mmHg 82%
    06:00 +15°C° 0 mm 6 mps 748 mmHg 81%
    07:00 +17°C° 0 mm 6 mps 748 mmHg 77%
    08:00 +20°C° 0 mm 5 mps 748 mmHg 72%
    09:00 +22°C° 0 mm 5 mps 748 mmHg 67%
    10:00 +23°C° 0 mm 5 mps 748 mmHg 61%
    11:00 +25°C° 0 mm 4 mps 748 mmHg 56%
    12:00 +27°C° 0 mm 4 mps 748 mmHg 51%
    13:00 +27°C° 0 mm 4 mps 747 mmHg 50%
    14:00 +27°C° 0 mm 3 mps 747 mmHg 50%
    15:00 +27°C° 0 mm 3 mps 747 mmHg 50%
    16:00 +27°C° 0 mm 2 mps 747 mmHg 50%
    17:00 +27°C° 0 mm 2 mps 747 mmHg 51%
    18:00 +27°C° 0 mm 1 mps 747 mmHg 52%
    19:00 +25°C° 0 mm 1 mps 747 mmHg 57%
    20:00 +23°C° 0 mm 1 mps 747 mmHg 62%
    21:00 +21°C° 0 mm 1 mps 747 mmHg 67%
    22:00 +21°C° 0 mm 1 mps 746 mmHg 68%
    23:00 +20°C° 0 mm 1 mps 746 mmHg 69%

    25 May, Saturday

    Time Temperature Precipitation Wind Pressure Humidity
    00:00 +19°C° 0 mm 2 mps 746 mmHg 70%
    01:00 +19°C° 0 mm 2 mps 746 mmHg 70%
    02:00 +19°C° 0 mm 2 mps 745 mmHg 70%
    03:00 +19°C° 0 mm 3 mps 745 mmHg 70%
    04:00 +19°C° 0 mm 3 mps 745 mmHg 70%
    05:00 +19°C° 0 mm 3 mps 745 mmHg 70%
    06:00 +19°C° 0 mm 3 mps 745 mmHg 70%
    07:00 +21°C° 0 mm 5 mps 745 mmHg 65%
    08:00 +22°C° 0 mm 6 mps 744 mmHg 60%
    09:00 +23°C° 0 mm 7 mps 744 mmHg 55%
    10:00 +26°C° 0 mm 7 mps 744 mmHg 51%
    11:00 +28°C° 0 mm 7 mps 743 mmHg 47%
    12:00 +31°C° 0 mm 8 mps 743 mmHg 42%
    13:00 +31°C° 0 mm 8 mps 742 mmHg 41%
    14:00 +32°C° 0 mm 8 mps 742 mmHg 40%
    15:00 +33°C° 0 mm 8 mps 741 mmHg 39%
    16:00 +32°C° 0 mm 7 mps 741 mmHg 43%
    17:00 +30°C° 0 mm 6 mps 741 mmHg 47%
    18:00 +29°C° 0 mm 6 mps 740 mmHg 52%
    19:00 +27°C° 0.2 mm 5 mps 741 mmHg 58%
    20:00 +25°C° 0.2 mm 5 mps 741 mmHg 65%
    21:00 +22°C° 0.2 mm 5 mps 742 mmHg 72%
    22:00 +21°C° 0.5 mm 4 mps 742 mmHg 77%
    23:00 +20°C° 0.5 mm 3 mps 742 mmHg 81%

    26 May, Sunday

    Time Temperature Precipitation Wind Pressure Humidity
    00:00 +20°C° 0.5 mm 3 mps 742 mmHg 86%
    01:00 +19°C° 0.2 mm 3 mps 742 mmHg 86%
    02:00 +19°C° 0.2 mm 3 mps 743 mmHg 86%
    03:00 +18°C° 0.2 mm 4 mps 743 mmHg 86%
    04:00 +18°C° 0 mm 4 mps 743 mmHg 85%
    05:00 +18°C° 0 mm 4 mps 744 mmHg 84%
    06:00 +18°C° 0 mm 4 mps 744 mmHg 82%
    07:00 +20°C° 0 mm 5 mps 745 mmHg 75%
    08:00 +22°C° 0 mm 7 mps 745 mmHg 67%
    09:00 +23°C° 0 mm 8 mps 745 mmHg 59%
    10:00 +24°C° 0 mm 8 mps 745 mmHg 56%
    11:00 +26°C° 0 mm 8 mps 746 mmHg 53%
    12:00 +27°C° 0 mm 8 mps 746 mmHg 50%
    13:00 +27°C° 0 mm 8 mps 746 mmHg 50%
    14:00 +27°C° 0 mm 8 mps 746 mmHg 50%
    15:00 +28°C° 0 mm 8 mps 746 mmHg 50%
    16:00 +27°C° 0 mm 7 mps 746 mmHg 53%
    17:00 +26°C° 0 mm 7 mps 746 mmHg 57%
    18:00 +24°C° 0 mm 6 mps 746 mmHg 61%
    19:00 +23°C° 0 mm 5 mps 747 mmHg 68%
    20:00 +21°C° 0 mm 5 mps 747 mmHg 74%
    21:00 +20°C° 0 mm 4 mps 748 mmHg 80%
    22:00 +19°C° 0 mm 4 mps 748 mmHg 83%
    23:00 +18°C° 0 mm 4 mps 748 mmHg 86%
    Show more